Weather in Beloyarka

Russia / Novosibirsk Oblast     55°24′54″N   83°11′52″E
temp.,
°C
wind,
m/s
gust,
m/s
humid.,
%
clouds,
%
prec.,
mm/h
press.,
hPa
HPBL,
m
3 march, wed
wed301:00−14sw129792 0.1 101739
04:00−15ssw229795 0.1 101629
07:00−18ssw229783 0.1 101720
10:00−15ssw139688 0.1 1018159
13:00−11sw249291 0.1 1018403
16:00−10sw3691100 0.1 1018515
19:00−13ssw3794100 0.1 1019209
22:00−13ssw4119468 0.0 1021372
4 march, thu
thu401:00−14ssw5139276 0.1 1021436
04:00−14ssw5149194 0.0 1020496
07:00−12ssw6149397 0.2 1020586
10:00−10ssw71493100 0.6 1019629
13:00−7ssw71492100 1.3 1018684
16:00−5ssw71393100 0.8 1017755
19:00−5ssw61394100 1.9 1016888
22:00−4ssw71593100 0.7 1015817
5 march, fri
fri501:00−5ssw61489100 1.1 1014692
04:00−6ssw61588100 0.1 1012664
07:00−7ssw7158598 0.1 1011610
10:00−6ssw71585100 0.0 1010713
13:00−4sw71393100 0.6 1010892
16:00−2wsw91481100 0.6 10111466
19:00−5sw61484100 0.7 1015803
22:00−6sw71492100 0.6 10161219
6 march, sat
sat601:00−6sw61491100 0.9 1017968
04:00−6sw61391100 0.1 1017787
07:00−5ssw61390100 0.3 1018744
10:00−5ssw71494100 1.0 1016790
13:00−4ssw81489100 2.0 1014998
16:00−3sw81485100 0.1 10121027
19:00−4sw81686100 0.1 10111050
22:00−4sw81789100 0.5 10091163
7 march, sun
sun701:00−3sw81691100 0.9 10091148
04:00−2sw71594100 0.8 10091373
07:00−7wsw6158290 1.0 1013702
10:00−9wsw6138763 0.0 1015654
13:00−9sw5118576 0.0 1017556
16:00−7sw4983100 0.0 1018592
19:00−8s2388100 0.0 101762
22:00−4s41294100 0.1 1015610